Change the Weather History Date:

Saturday, March 29, 2014

  Actual Average Record
Temperature  
Mean Temperature 20 °F -  
Max Temperature 25 °F 22 °F 37 °F (1998)
Min Temperature 15 °F 11 °F -4 °F (1997)
Degree Days  
Heating Degree Days 45    
Moisture  
Dew Point -19 °F    
Average Humidity 11    
Maximum Humidity 21    
Minimum Humidity 4    
Precipitation  
Precipitation 0.00 in - - ()
Sea Level Pressure  
Sea Level Pressure 30.15 in    
Wind  
Wind Speed 16 mph ()    
Max Wind Speed 28 mph    
Max Gust Speed -    
Visibility 9.0 miles    
Events      
Averages and records for this station are not official NWS values.
T = Trace of Precipitation, MM = Missing Value Source: Averaged Metar Reports

Daily Weather History Graph

Daily Weather History Graph

Search for Another Location

Airport or City:

Trip Planner

Search our weather history database for the weather conditions in past years. The results will help you decide how hot, cold, wet, or windy it might be!

Date:

Astronomy

Mar. 29, 2014 Rise Set
Actual Time 6:15 AM CET 6:53 PM CET
Civil Twilight 5:45 AM CET 7:23 PM CET
Nautical Twilight 5:09 AM CET 7:59 PM CET
Astronomical Twilight 4:32 AM CET 8:36 PM CET
Moon 5:18 AM CET 5:37 PM CET
Length of Visible Light 13h 38m
Length of Day
12h 38m
Waning Crescent, 2% of the Moon is Illuminated
Mar 29
Waning Crescent
Mar 30
New
Apr 7
First Quarter
Apr 15
Full
Apr 22
Last Quarter

Hourly Weather History & Observations

Time (CET) Temp. Windchill Dew Point Humidity Pressure Visibility Wind Dir Wind Speed Gust Speed Precip Events Conditions
12:00 AM 16 °F - -16 °F 10%  in 6 mi SSW 11.5 mph - -  
12:55 AM 17.6 °F 2.7 °F -18.4 °F 19% 30.09 in - SSW 16.1 mph - N/A   Clear
1:00 AM 18 °F - -19 °F 7%  in 6 mi SSW 16.1 mph - -  
1:55 AM 15.8 °F 2.7 °F -18.4 °F 21% 30.09 in - SSW 11.5 mph - N/A   Clear
2:00 AM 17 °F - -18 °F 8%  in 6 mi SSW 11.5 mph - -  
2:55 AM 17.6 °F 2.7 °F -16.6 °F 21% 30.09 in - South 16.1 mph - N/A   Clear
3:00 AM 17 °F - -17 °F 9%  in 6 mi South 16.1 mph - -  
3:55 AM 17.6 °F 2.7 °F -16.6 °F 21% 30.09 in - South 16.1 mph - N/A   Clear
4:00 AM 18 °F - -17 °F 8%  in 6 mi South 16.1 mph - -  
4:55 AM 19.4 °F 5.5 °F -20.2 °F 16% 30.09 in - South 15.0 mph - N/A   Clear
5:00 AM 19 °F - -20 °F 6%  in 6 mi South 15.0 mph - -  
5:55 AM 19.4 °F 4.1 °F -22.0 °F 15% 30.09 in - SSW 18.4 mph - N/A   Clear
6:00 AM 19 °F - -22 °F 5%  in 6 mi SSW 18.4 mph - -  
6:55 AM 19.4 °F 6.0 °F -20.2 °F 16% 30.12 in - South 13.8 mph - N/A   Clear
7:00 AM 19 °F - -20 °F 6%  in 31 mi South 13.8 mph - -  
7:55 AM 21.2 °F 8.9 °F -20.2 °F 15% 30.12 in - South 12.7 mph - N/A   Clear
8:00 AM 21 °F - -21 °F 5%  in 47 mi South 12.7 mph - -  
8:55 AM 21.2 °F 7.3 °F -18.4 °F 17% 30.15 in - South 16.1 mph - N/A   Clear
9:00 AM 21 °F - -19 °F 6%  in 47 mi South 16.1 mph - -  
9:55 AM 23.0 °F 6.3 °F -14.8 °F 18% 30.15 in - SE 26.5 mph - N/A   Clear
10:00 AM 23 °F - -16 °F 7%  in 47 mi SE 26.5 mph - -  
10:55 AM 23.0 °F 8.0 °F -16.6 °F 17% 30.18 in 6.2 mi SSE 20.7 mph - N/A   Scattered Clouds
11:00 AM 23 °F - -17 °F 6%  in 37 mi SSE 20.7 mph - -   Partly Cloudy
11:55 AM 23.0 °F 8.0 °F -13.0 °F 20% 30.18 in - SSE 20.7 mph - N/A   Clear
12:00 PM 24 °F - -14 °F 7%  in 47 mi SSE 20.7 mph - -   Clear
12:55 PM 24.8 °F 8.4 °F -16.6 °F 16% 30.18 in - SSE 27.6 mph - N/A   Clear
1:00 PM 25 °F - -16 °F 6%  in 47 mi SSE 27.6 mph - -   Clear
1:55 PM 23.0 °F 6.9 °F -18.4 °F 15% 30.18 in - SSE 24.2 mph - N/A   Clear
2:00 PM 24 °F - -19 °F 5%  in 47 mi SSE 24.2 mph - -   Clear
2:55 PM 23.0 °F 7.6 °F -16.6 °F 17% 30.15 in - SSE 21.9 mph - N/A   Clear
3:00 PM 23 °F - -16 °F 6%  in 19 mi SSE 21.9 mph - -   Clear
3:55 PM 23.0 °F 11.7 °F -14.8 °F 18% 30.18 in 6.2 mi South 11.5 mph - N/A   Mostly Cloudy
4:00 PM 23 °F - -15 °F 7%  in 19 mi South 11.5 mph - -   Mostly Cloudy
4:55 PM 23.0 °F 6.0 °F -22.0 °F 13% 30.15 in - SSE 27.6 mph - N/A   Clear
5:00 PM 23 °F - -22 °F 4%  in 31 mi SSE 27.6 mph - -   Clear
5:55 PM 23.0 °F 11.1 °F -22.0 °F 13% 30.18 in - South 12.7 mph - N/A   Clear
6:55 PM 23.0 °F 7.2 °F -22.0 °F 13% 30.18 in - SSE 23.0 mph - N/A   Clear
7:00 PM 22 °F - -22 °F 4%  in 19 mi SSE 23.0 mph - -  
7:55 PM 21.2 °F 5.2 °F -22.0 °F 14% 30.18 in - SSE 21.9 mph - N/A   Clear
8:00 PM 22 °F - -22 °F 4%  in 9 mi SSE 21.9 mph - -  
8:55 PM 21.2 °F 7.3 °F -22.0 °F 14% 30.21 in - South 16.1 mph - N/A   Clear
9:00 PM 21 °F - -22 °F 4%  in 9 mi South 16.1 mph - -  
9:55 PM 21.2 °F 7.3 °F -22.0 °F 14% 30.21 in - South 16.1 mph - N/A   Clear
10:00 PM 22 °F - -22 °F 4%  in 7 mi South 16.1 mph - -  
10:55 PM 21.2 °F 8.3 °F -22.0 °F 14% 30.21 in - South 13.8 mph - N/A   Clear
11:00 PM 21 °F - -22 °F 4%  in 7 mi South 13.8 mph - -  
11:55 PM 21.2 °F 7.3 °F -22.0 °F 14% 30.21 in - SSW 16.1 mph - N/A   Clear